This demonstration page uses our WeatherBlox Daily Observations layout. Learn more.

Left ArrowRight Arrow

39.51506, -84.39828

Hourly Observations for March 7, 2018

Temp ( °F °C ) Dew Point ( °F °C ) Humidity (%) Winds ( mph kmh ) Pressure ( in mb ) Visibility ( mi km ) Precip ( " mm )
12:15 am 00:15 Cloudy 38 3.6 29 -1.6 69 69 NW 10 17 29.77 1008 10 16.0934 N/A
12:35 am 00:35 Cloudy 38 3.1 28 -2 70 70 NW 17 28 29.77 1008 10 16.0934 N/A
12:55 am 00:55 Cloudy 37 2.7 30 -1.3 75 75 WNW 10 17 29.77 1008 10 16.0934 N/A
1:15 am 01:15 Cloudy 36 2.4 30 -1.2 77 77 WNW 7 11 29.77 1008 10 16.0934 N/A
1:35 am 01:35 Cloudy 37 2.5 28 -2.4 70 70 WNW 7 11 29.77 1008 10 16.0934 N/A
1:55 am 01:55 Cloudy 36 2.4 27 -2.9 68 68 W 6 9 29.77 1008 10 16.0934 N/A
2:15 am 02:15 Cloudy 36 2.2 28 -2.4 72 72 W 8 13 29.77 1008 10 16.0934 N/A
2:35 am 02:35 Cloudy 36 2.1 28 -2.3 73 73 W 7 11 29.77 1008 10 16.0934 N/A
2:55 am 02:55 Cloudy 35 1.6 27 -2.6 74 74 W 9 15 29.77 1008 10 16.0934 N/A
3:15 am 03:15 Cloudy 34 1.3 28 -2.5 76 76 W 8 13 29.8 1009 10 16.0934 N/A
3:35 am 03:35 Cloudy 35 1.4 28 -2 78 78 W 8 13 29.83 1010 10 16.0934 N/A
3:55 am 03:55 Cloudy 35 1.4 28 -2.4 76 76 W 14 22 29.83 1010 10 16.0934 N/A
4:15 am 04:15 Cloudy 34 1.1 26 -3.1 74 74 W 13 20 29.83 1010 10 16.0934 N/A
4:35 am 04:35 Cloudy 34 0.9 26 -3.3 74 74 W 14 22 29.83 1010 10 16.0934 N/A
4:55 am 04:55 Cloudy 33 0.4 26 -3.4 76 76 WNW 9 15 29.83 1010 10 16.0934 N/A
5:15 am 05:15 Partly Cloudy 32 undefined 26 -3.6 77 77 W 10 17 29.83 1010 10 16.0934 N/A
5:35 am 05:35 Clear 31 -0.4 25 -3.9 78 78 W 8 13 29.83 1010 10 16.0934 N/A
5:55 am 05:55 Clear 30 -0.9 25 -4 80 80 W 9 15 29.85 1011 10 16.0934 N/A
6:15 am 06:15 Cloudy 32 -0.1 26 -3.5 78 78 W 14 22 29.85 1011 10 16.0934 N/A
6:35 am 06:35 Cloudy 32 undefined 26 -3.5 78 78 W 12 19 29.85 1011 10 16.0934 N/A
6:55 am 06:55 Cloudy 32 0.1 26 -3.5 77 77 W 10 17 29.88 1012 10 16.0934 N/A
7:15 am 07:15 Cloudy 32 0.2 26 -3.3 78 78 W 7 11 29.88 1012 10 16.0934 N/A
7:35 am 07:35 Cloudy with Haze 33 0.3 27 -2.8 80 80 W 10 17 29.88 1012 5 8.0467 N/A
7:55 am 07:55 Cloudy 32 0.2 28 -2.3 84 84 WSW 10 17 29.88 1012 10 16.0934 N/A
8:15 am 08:15 Cloudy with Light Snow 33 0.4 28 -2 84 84 WSW 10 17 29.88 1012 10 16.0934 N/A
8:35 am 08:35 Cloudy with Light Snow 33 0.5 30 -1.3 88 88 WSW 10 17 29.88 1012 7 11.26538 N/A
8:55 am 08:55 Cloudy with Light Snow 33 0.8 30 -1.2 87 87 WSW 8 13 29.88 1012 10 16.0934 N/A
9:15 am 09:15 Cloudy with Light Snow 34 1.1 30 -1 86 86 W 7 11 29.88 1012 3 4.82802 N/A
9:35 am 09:35 Cloudy with Light Snow 35 1.5 28 -2.5 75 75 NW 18 30 29.91 1013 10 16.0934 N/A
9:55 am 09:55 Cloudy 35 1.6 27 -3 72 72 NW 16 26 29.91 1013 10 16.0934 N/A
10:15 am 10:15 Cloudy with Light Rain 35 1.7 26 -3.1 71 71 NW 18 30 29.94 1014 10 16.0934 N/A
10:35 am 10:35 Cloudy 35 1.8 24 -4.3 64 64 WNW 22 35 29.94 1014 10 16.0934 N/A
10:55 am 10:55 Mostly Cloudy 38 3.1 24 -4.3 59 59 WNW 16 26 29.91 1013 10 16.0934 N/A
11:15 am 11:15 Cloudy 36 2.2 24 -4.7 61 61 WNW 15 24 29.94 1014 10 16.0934 N/A
11:35 am 11:35 Cloudy 35 1.9 24 -4.7 62 62 WNW 18 30 29.97 1015 10 16.0934 N/A
11:55 am 11:55 Mostly Cloudy 37 2.8 22 -5.4 55 55 WNW 17 28 29.97 1015 10 16.0934 N/A
12:15 pm 12:15 Cloudy 38 3.4 22 -5.3 53 53 W 17 28 29.94 1014 10 16.0934 N/A
12:35 pm 12:35 Partly Cloudy with Light Rain 38 3.4 24 -4.3 57 57 WNW 14 22 29.94 1014 10 16.0934 N/A
12:55 pm 12:55 Cloudy 39 3.7 19 -7.3 45 45 W 18 30 29.94 1014 10 16.0934 N/A
1:15 pm 13:15 Mostly Cloudy 40 4.5 19 -7.3 42 42 W 21 33 29.94 1014 10 16.0934 N/A
1:35 pm 13:35 Cloudy 38 3.4 19 -7.4 45 45 WNW 18 30 29.94 1014 10 16.0934 N/A
1:55 pm 13:55 Cloudy 37 2.7 17 -8.2 45 45 W 29 46 29.97 1015 10 16.0934 N/A
2:15 pm 14:15 Cloudy 37 2.7 17 -8.3 45 45 W 20 31 29.97 1015 10 16.0934 N/A
2:35 pm 14:35 Cloudy 37 2.6 19 -7.4 48 48 WNW 20 31 29.97 1015 10 16.0934 N/A
2:55 pm 14:55 Cloudy 37 2.5 19 -7.4 48 48 WNW 17 28 29.97 1015 10 16.0934 N/A
3:15 pm 15:15 Cloudy 37 2.9 18 -7.7 46 46 W 16 26 30 1016 10 16.0934 N/A
3:35 pm 15:35 Cloudy 37 2.5 19 -7.5 48 48 WNW 13 20 30 1016 10 16.0934 N/A
3:55 pm 15:55 Cloudy 37 2.5 19 -7.4 48 48 WNW 15 24 30 1016 10 16.0934 N/A
4:15 pm 16:15 Cloudy 37 2.9 20 -6.9 49 49 WNW 17 28 30 1016 10 16.0934 N/A
4:35 pm 16:35 Cloudy 37 2.5 20 -6.9 50 50 WNW 12 19 30 1016 10 16.0934 N/A
4:55 pm 16:55 Cloudy 36 2.4 21 -6 54 54 NW 12 19 30 1016 10 16.0934 N/A
5:15 pm 17:15 Cloudy 36 2.3 22 -5.4 57 57 W 9 15 30 1016 10 16.0934 N/A
5:35 pm 17:35 Cloudy 36 2.1 23 -5.1 59 59 NW 13 20 30 1016 10 16.0934 N/A
5:55 pm 17:55 Cloudy 34 1.3 25 -4.1 68 68 WNW 9 15 30.03 1017 10 16.0934 N/A
6:15 pm 18:15 Cloudy 34 1.3 24 -4.6 65 65 NW 8 13 30.03 1017 10 16.0934 N/A
6:35 pm 18:35 Cloudy with Light Snow 33 0.3 27 -2.8 80 80 NW 8 13 30.03 1017 4 6.43736 N/A
6:55 pm 18:55 Cloudy 33 0.5 26 -3.3 76 76 W 8 13 30.03 1017 10 16.0934 N/A
7:15 pm 19:15 Cloudy 34 0.9 24 -4.7 67 67 WNW 9 15 30.03 1017 10 16.0934 N/A
7:35 pm 19:35 Cloudy 34 1 20 -6.6 57 57 WNW 17 28 30.03 1017 10 16.0934 N/A
7:55 pm 19:55 Cloudy 33 0.8 19 -7.5 54 54 WNW 12 19 30.03 1017 10 16.0934 N/A
8:15 pm 20:15 Cloudy 33 0.6 19 -7.4 55 55 NW 9 15 30.03 1017 10 16.0934 N/A
8:35 pm 20:35 Cloudy 33 0.5 19 -7.5 55 55 WNW 10 17 30.06 1018 10 16.0934 N/A
8:55 pm 20:55 Cloudy 33 0.3 19 -7.4 57 57 WNW 7 11 30.06 1018 10 16.0934 N/A
9:15 pm 21:15 Cloudy 32 undefined 19 -7 60 60 WNW 8 13 30.06 1018 10 16.0934 N/A
9:35 pm 21:35 Cloudy 32 undefined 19 -7.2 59 59 NW 8 13 30.06 1018 10 16.0934 N/A
9:55 pm 21:55 Cloudy 31 -0.3 20 -6.9 61 61 WNW 5 7 30.06 1018 10 16.0934 N/A
10:15 pm 22:15 Cloudy 32 -0.2 20 -6.7 62 62 W 6 9 30.06 1018 10 16.0934 N/A
10:35 pm 22:35 Cloudy 32 -0.2 20 -6.7 62 62 WNW 3 6 30.06 1018 10 16.0934 N/A
10:55 pm 22:55 Cloudy 32 -0.1 19 -7 60 60 WNW 6 9 30.03 1017 10 16.0934 N/A
11:15 pm 23:15 Cloudy 32 -0.1 20 -6.9 61 61 W 12 19 30.03 1017 10 16.0934 N/A
11:35 pm 23:35 Cloudy 31 -0.5 20 -6.4 65 65 W 10 17 30.03 1017 10 16.0934 N/A
11:55 pm 23:55 Mostly Cloudy 30 -1.1 22 -5.8 71 71 W 8 13 30.03 1017 10 16.0934 N/A

Powered by AerisWeather